Weather History for Yakutat, AK

Change the Weather History Date:

Sunday, January 19, 2014

  Actual Average Record
Temperature  
Mean Temperature 36 °F 28 °F  
Max Temperature 39 °F 34 °F 50 °F (1981)
Min Temperature 33 °F 22 °F -16 °F (1969)
Degree Days  
Heating Degree Days 29 37  
Month to date heating degree days 573 702  
Since 1 July heating degree days 4343 4696  
Cooling Degree Days 0    
Month to date cooling degree days 0  
Year to date cooling degree days 0  
Moisture  
Dew Point 35 °F    
Average Humidity 0    
Maximum Humidity 0    
Minimum Humidity 0    
Precipitation  
Precipitation 0.31 in 0.43 in 2.97 in (1992)
Month to date precipitation 15.69 8.61  
Year to date precipitation 15.69 8.61  
Snow  
Snow 0.00 in 1.10 in 9.50 in (1973)
Month to date snowfall 21.3 18.3  
Since 1 July snowfall 67.2 62.2  
Snow Depth 1.00 in    
Sea Level Pressure  
Sea Level Pressure 30.09 in    
Wind  
Wind Speed 5 mph (ENE)    
Max Wind Speed 10 mph    
Max Gust Speed 15 mph    
Visibility 10 miles    
Events Rain    
T = Trace of Precipitation, MM = Missing Value Source: NWS Daily Summary

Daily Weather History Graph

Daily Weather History Graph

Search for Another Location

Airport:

Trip Planner

Search our weather history database for the weather conditions in past years. The results will help you decide how hot, cold, wet, or windy it might be!

Date:

Astronomy

Jan. 19, 2014 Rise Set
Actual Time 8:55 AM AKST 4:03 PM AKST
Civil Twilight 8:05 AM AKST 4:54 PM AKST
Nautical Twilight 7:13 AM AKST 5:46 PM AKST
Astronomical Twilight 6:24 AM AKST 6:35 PM AKST
Moon 8:59 PM AKST (1/19) 9:26 AM AKST (1/19)
Length of Visible Light 8h 48m
Length of Day
7h 08m
Waning Gibbous, 88% of the Moon is Illuminated
Jan 19
Waning Gibbous
Jan 23
Last Quarter
Jan 30
New
Feb 6
First Quarter
Feb 14
Full

Hourly Weather History & Observations

Time (AKST) Temp. Windchill Dew Point Humidity Pressure Visibility Wind Dir Wind Speed Gust Speed Precip Events Conditions
12:11 AM 35.6 °F 32.8 °F 35.6 °F 100% 30.01 in 10.0 mi NNE 3.5 mph - 0.02 in   Overcast
12:53 AM 35.1 °F 32.2 °F 35.1 °F 100% 30.03 in 10.0 mi East 3.5 mph - 0.02 in   Mostly Cloudy
1:44 AM 35.6 °F - 35.6 °F 100% 30.05 in 9.0 mi Calm Calm - N/A   Overcast
1:53 AM 35.1 °F - 35.1 °F 100% 30.05 in 10.0 mi Calm Calm - N/A   Overcast
2:21 AM 35.6 °F 32.8 °F 35.6 °F 100% 30.05 in 10.0 mi East 3.5 mph - N/A   Overcast
2:53 AM 35.1 °F 32.2 °F 34.0 °F 96% 30.06 in 10.0 mi East 3.5 mph - N/A   Overcast
3:37 AM 35.6 °F 32.8 °F 35.6 °F 100% 30.06 in 10.0 mi Variable 3.5 mph - N/A   Overcast
3:53 AM 36.0 °F - 35.1 °F 97% 30.06 in 9.0 mi Calm Calm - N/A   Overcast
4:53 AM 36.0 °F 32.1 °F 34.0 °F 93% 30.06 in 10.0 mi East 4.6 mph - 0.00 in   Scattered Clouds
5:53 AM 35.1 °F 32.2 °F 34.0 °F 96% 30.07 in 10.0 mi East 3.5 mph - N/A   Partly Cloudy
6:18 AM 33.8 °F 30.8 °F 33.8 °F 100% 30.07 in 10.0 mi ENE 3.5 mph - N/A   Mostly Cloudy
6:38 AM 33.8 °F - 33.8 °F 100% 30.08 in 10.0 mi Calm Calm - N/A   Overcast
6:53 AM 35.1 °F 32.2 °F 34.0 °F 96% 30.08 in 10.0 mi ENE 3.5 mph - N/A   Overcast
7:14 AM 35.6 °F - 33.8 °F 93% 30.08 in 10.0 mi Calm Calm - 0.00 in   Overcast
7:31 AM 35.6 °F - 33.8 °F 93% 30.09 in 10.0 mi Calm Calm - 0.00 in   Scattered Clouds
7:53 AM 35.1 °F 30.1 °F 33.1 °F 92% 30.08 in 10.0 mi ENE 5.8 mph - 0.00 in   Partly Cloudy
8:53 AM 34.0 °F - 33.1 °F 96% 30.10 in 10.0 mi Calm Calm - N/A   Scattered Clouds
9:53 AM 34.0 °F 31.0 °F 33.1 °F 96% 30.11 in 10.0 mi ENE 3.5 mph - N/A   Mostly Cloudy
10:53 AM 35.1 °F - 33.1 °F 92% 30.14 in 10.0 mi Calm Calm - N/A   Mostly Cloudy
11:53 AM 36.0 °F 29.6 °F 34.0 °F 93% 30.14 in 10.0 mi East 8.1 mph - 0.00 in   Overcast
12:36 PM 37.4 °F 32.8 °F 33.8 °F 87% 30.13 in 10.0 mi ENE 5.8 mph - 0.01 in   Overcast
12:53 PM 37.0 °F 32.4 °F 35.1 °F 93% 30.13 in 10.0 mi ENE 5.8 mph - 0.01 in   Overcast
1:53 PM 37.0 °F 31.6 °F 35.1 °F 93% 30.13 in 10.0 mi East 6.9 mph - 0.00 in   Overcast
2:43 PM 37.4 °F 32.8 °F 35.6 °F 93% 30.11 in 10.0 mi ENE 5.8 mph - 0.00 in   Mostly Cloudy
2:53 PM 37.9 °F 32.7 °F 35.1 °F 89% 30.12 in 10.0 mi ENE 6.9 mph - 0.00 in   Mostly Cloudy
3:53 PM 37.9 °F 33.5 °F 35.1 °F 89% 30.10 in 10.0 mi ENE 5.8 mph - N/A   Overcast
4:33 PM 37.4 °F 32.8 °F 35.6 °F 93% 30.10 in 10.0 mi East 5.8 mph - 0.00 in Rain Light Rain
4:50 PM 37.4 °F 32.1 °F 35.6 °F 93% 30.10 in 10.0 mi ENE 6.9 mph - 0.00 in Rain Light Rain
4:53 PM 37.9 °F 33.5 °F 35.1 °F 89% 30.10 in 10.0 mi East 5.8 mph - 0.00 in   Overcast
5:53 PM 37.9 °F 33.5 °F 35.1 °F 89% 30.11 in 9.0 mi East 5.8 mph - 0.01 in Rain Light Rain
6:00 PM 37.4 °F 32.1 °F 35.6 °F 93% 30.10 in 9.0 mi East 6.9 mph - 0.00 in Rain Light Rain
6:53 PM 37.9 °F 30.9 °F 35.1 °F 89% 30.11 in 8.0 mi East 10.4 mph - 0.03 in Rain Light Rain
7:53 PM 37.0 °F 31.0 °F 35.1 °F 93% 30.12 in 8.0 mi ENE 8.1 mph - 0.04 in Rain Light Rain
8:53 PM 37.0 °F 31.0 °F 35.1 °F 93% 30.12 in 7.0 mi ENE 8.1 mph - 0.05 in Rain Light Rain
9:53 PM 37.0 °F 31.0 °F 35.1 °F 93% 30.11 in 7.0 mi NE 8.1 mph - 0.07 in Rain Light Rain
10:53 PM 37.0 °F 33.3 °F 36.0 °F 96% 30.11 in 8.0 mi East 4.6 mph - 0.04 in Rain Light Rain
11:53 PM 37.0 °F 31.6 °F 36.0 °F 96% 30.11 in 9.0 mi ENE 6.9 mph - 0.06 in Rain Light Rain